Location: Unspecified
(0.0000°N, 0.0000°E)
Time: 03:57:36
(UTC+00:00)

ISS - Pass Details

Date: 13 June 2019
Orbit: 407 x 418 km, 51.6° (Epoch: 27 June)

Event Time Altitude Azimuth Distance (km) Brightness Sun altitude
Rises 18:45:26 0° 355° (N) 2,335 0.4 -10.4°
Reaches altitude 10° 18:48:25 10° 25° (NNE) 1,480 -1.0 -11.1°
Maximum altitude 18:50:01 13° 54° (NE) 1,316 -1.5 -11.5°
Enters shadow 18:51:00 12° 73° (ENE) 1,382 -1.6 -11.7°
